Weather History for KAQP - July, 2013

Change the Weather History Date:

Wednesday, July 17, 2013

  Actual Average Record
Temperature  
Mean Temperature 82 °F -  
Max Temperature 91 °F 80 °F 93 °F (2001)
Min Temperature 73 °F 60 °F 51 °F (2014)
Cooling Degree Days 17    
Growing Degree Days 32 (Base 50)    
Moisture  
Dew Point 68 °F    
Average Humidity 64    
Maximum Humidity 79    
Minimum Humidity 43    
Precipitation  
Precipitation 0.00 in - - ()
Sea Level Pressure  
Sea Level Pressure 30.17 in    
Wind  
Wind Speed 7 mph (SSW)    
Max Wind Speed 15 mph    
Max Gust Speed 20 mph    
Visibility 10 miles    
Events      
Averages and records for this station are not official NWS values.
T = Trace of Precipitation, MM = Missing Value Source: NWS Daily Summary

Daily Weather History Graph

Daily Weather History Graph

Search for Another Location

Airport or City:

Trip Planner

Search our weather history database for the weather conditions in past years. The results will help you decide how hot, cold, wet, or windy it might be!

Date:

Astronomy

Jul. 17, 2013 Rise Set
Actual Time 5:52 AM CDT 9:06 PM CDT
Civil Twilight 5:17 AM CDT 9:42 PM CDT
Nautical Twilight 4:30 AM CDT 10:28 PM CDT
Astronomical Twilight 3:32 AM CDT 11:26 PM CDT
Moon 3:53 PM CDT (7/17) 1:06 AM CDT (7/17)
Length of Visible Light 16h 25m
Length of Day
15h 13m
Waxing Gibbous, 67% of the Moon is Illuminated
Jul 17
Waxing Gibbous
Jul 22
Full
Jul 29
Last Quarter
Aug 6
New
Aug 14
First Quarter

Hourly Weather History & Observations

Time (CDT) Temp. Heat Index Dew Point Humidity Pressure Visibility Wind Dir Wind Speed Gust Speed Precip Events Conditions
12:13 AM 75.2 °F - 66.2 °F 73% 30.20 in 10.0 mi South 5.8 mph - N/A   Clear
12:33 AM 75.2 °F - 66.2 °F 73% 30.20 in 10.0 mi South 5.8 mph - N/A   Clear
12:53 AM 75.2 °F - 66.2 °F 73% 30.20 in 10.0 mi South 5.8 mph - N/A   Clear
1:13 AM 75.2 °F - 66.2 °F 73% 30.20 in 10.0 mi South 6.9 mph - N/A   Clear
1:33 AM 75.2 °F - 66.2 °F 73% 30.20 in 10.0 mi South 6.9 mph - N/A   Clear
1:53 AM 75.2 °F - 66.2 °F 73% 30.20 in 10.0 mi South 6.9 mph - N/A   Clear
2:13 AM 75.2 °F - 66.2 °F 73% 30.20 in 10.0 mi South 6.9 mph - N/A   Clear
2:33 AM 75.2 °F - 66.2 °F 73% 30.20 in 10.0 mi South 6.9 mph - N/A   Clear
2:54 AM 75.2 °F - 66.2 °F 73% 30.20 in 10.0 mi South 8.1 mph - N/A   Clear
3:13 AM 73.4 °F - 66.2 °F 78% 30.20 in 10.0 mi South 8.1 mph - N/A   Clear
3:33 AM 73.4 °F - 66.2 °F 78% 30.20 in 10.0 mi South 6.9 mph - N/A   Clear
3:53 AM 73.4 °F - 66.2 °F 78% 30.20 in 10.0 mi South 6.9 mph - N/A   Clear
4:13 AM 73.4 °F - 66.2 °F 78% 30.20 in 10.0 mi South 5.8 mph - N/A   Clear
4:33 AM 73.4 °F - 66.2 °F 78% 30.20 in 10.0 mi South 5.8 mph - N/A   Clear
4:53 AM 73.4 °F - 66.2 °F 78% 30.20 in 10.0 mi South 3.5 mph - N/A   Clear
5:14 AM 73.4 °F - 66.2 °F 78% 30.20 in 10.0 mi South 4.6 mph - N/A   Mostly Cloudy
5:33 AM 73.4 °F - 66.2 °F 78% 30.20 in 10.0 mi South 3.5 mph - N/A   Overcast
5:54 AM 73.4 °F - 66.2 °F 78% 30.20 in 10.0 mi South 3.5 mph - N/A   Overcast
6:13 AM 73.4 °F - 66.2 °F 78% 30.21 in 10.0 mi South 3.5 mph - N/A   Mostly Cloudy
6:33 AM 73.4 °F - 66.2 °F 78% 30.21 in 10.0 mi South 4.6 mph - N/A   Mostly Cloudy
6:53 AM 73.4 °F - 66.2 °F 78% 30.21 in 10.0 mi South 3.5 mph - N/A   Mostly Cloudy
7:13 AM 73.4 °F - 66.2 °F 78% 30.21 in 10.0 mi South 4.6 mph - N/A   Scattered Clouds
7:33 AM 75.2 °F - 66.2 °F 73% 30.21 in 10.0 mi SSW 6.9 mph - N/A   Clear
7:53 AM 77.0 °F - 66.2 °F 69% 30.21 in 10.0 mi SSW 9.2 mph - N/A   Clear
8:13 AM 78.8 °F - 66.2 °F 65% 30.21 in 10.0 mi SSW 8.1 mph - N/A   Clear
8:33 AM 78.8 °F - 66.2 °F 65% 30.22 in 10.0 mi SSW 10.4 mph - N/A   Clear
8:53 AM 80.6 °F 83.2 °F 68.0 °F 65% 30.22 in 10.0 mi SW 8.1 mph - N/A   Clear
9:14 AM 80.6 °F 83.2 °F 68.0 °F 65% 30.22 in 10.0 mi SW 8.1 mph - N/A   Clear
9:33 AM 82.4 °F 85.4 °F 68.0 °F 62% 30.22 in 10.0 mi SW 9.2 mph - N/A   Clear
9:54 AM 82.4 °F 86.3 °F 69.8 °F 66% 30.22 in 10.0 mi SW 9.2 mph - N/A   Clear
10:13 AM 84.2 °F 87.3 °F 68.0 °F 58% 30.21 in 10.0 mi SW 8.1 mph - N/A   Clear
10:34 AM 84.2 °F 87.3 °F 68.0 °F 58% 30.21 in 10.0 mi SW 10.4 mph - N/A   Clear
10:54 AM 86.0 °F 89.4 °F 68.0 °F 55% 30.21 in 10.0 mi SW 9.2 mph - N/A   Clear
11:13 AM 86.0 °F 89.4 °F 68.0 °F 55% 30.22 in 10.0 mi SW 8.1 mph - N/A   Clear
11:33 AM 87.8 °F 91.4 °F 68.0 °F 52% 30.22 in 10.0 mi WSW 9.2 mph - N/A   Clear
11:53 AM 87.8 °F 91.4 °F 68.0 °F 52% 30.22 in 10.0 mi WSW 9.2 mph 16.1 mph N/A   Clear
12:13 PM 87.8 °F 91.4 °F 68.0 °F 52% 30.22 in 10.0 mi SSW 11.5 mph - N/A   Clear
12:34 PM 87.8 °F 90.4 °F 66.2 °F 49% 30.22 in 10.0 mi SW 11.5 mph - N/A   Clear
12:53 PM 89.6 °F 93.4 °F 68.0 °F 49% 30.21 in 10.0 mi SSW 12.7 mph - N/A   Clear
1:14 PM 89.6 °F 92.2 °F 66.2 °F 46% 30.21 in 10.0 mi SW 15.0 mph - N/A   Clear
1:33 PM 89.6 °F 92.2 °F 66.2 °F 46% 30.21 in 10.0 mi SW 13.8 mph 18.4 mph N/A   Clear
1:53 PM 89.6 °F 93.4 °F 68.0 °F 49% 30.20 in 10.0 mi SW 11.5 mph 16.1 mph N/A   Clear
2:14 PM 89.6 °F 93.4 °F 68.0 °F 49% 30.19 in 10.0 mi SSW 11.5 mph - N/A   Clear
2:33 PM 89.6 °F 92.2 °F 66.2 °F 46% 30.18 in 10.0 mi SW 12.7 mph 17.3 mph N/A   Clear
2:53 PM 89.6 °F 92.2 °F 66.2 °F 46% 30.17 in 10.0 mi SSW 10.4 mph 16.1 mph N/A   Clear
3:13 PM 89.6 °F 92.2 °F 66.2 °F 46% 30.17 in 10.0 mi SSW 12.7 mph - N/A   Clear
3:33 PM 89.6 °F 91.1 °F 64.4 °F 43% 30.16 in 10.0 mi SSW 13.8 mph 18.4 mph N/A   Clear
3:53 PM 91.4 °F 94.0 °F 66.2 °F 43% 30.16 in 10.0 mi SW 12.7 mph 18.4 mph N/A   Clear
4:14 PM 89.6 °F 92.2 °F 66.2 °F 46% 30.15 in 10.0 mi South 10.4 mph 17.3 mph N/A   Clear
4:33 PM 89.6 °F 92.2 °F 66.2 °F 46% 30.15 in 10.0 mi SSW 11.5 mph - N/A   Clear
4:53 PM 91.4 °F 94.0 °F 66.2 °F 43% 30.14 in 10.0 mi SSW 11.5 mph - N/A   Clear
5:13 PM 89.6 °F 93.4 °F 68.0 °F 49% 30.14 in 10.0 mi SSW 9.2 mph 18.4 mph N/A   Clear
5:34 PM 89.6 °F 92.2 °F 66.2 °F 46% 30.13 in 10.0 mi SSW 12.7 mph 18.4 mph N/A   Clear
5:53 PM 89.6 °F 92.2 °F 66.2 °F 46% 30.13 in 10.0 mi SSW 11.5 mph 19.6 mph N/A   Clear
6:13 PM 89.6 °F 92.2 °F 66.2 °F 46% 30.13 in 10.0 mi SSW 9.2 mph - N/A   Clear
6:33 PM 89.6 °F 94.7 °F 69.8 °F 52% 30.12 in 10.0 mi SSW 5.8 mph - N/A   Clear
6:53 PM 89.6 °F 94.7 °F 69.8 °F 52% 30.12 in 10.0 mi SSW 8.1 mph - N/A   Clear
7:13 PM 89.6 °F 94.7 °F 69.8 °F 52% 30.11 in 10.0 mi South 9.2 mph - N/A   Clear
7:33 PM 87.8 °F 93.8 °F 71.6 °F 58% 30.11 in 10.0 mi South 4.6 mph - N/A   Clear
7:53 PM 87.8 °F 93.8 °F 71.6 °F 58% 30.11 in 10.0 mi South 4.6 mph - N/A   Clear
8:13 PM 86.0 °F 91.8 °F 71.6 °F 62% 30.10 in 10.0 mi South 4.6 mph - N/A   Clear
8:33 PM 84.2 °F 89.6 °F 71.6 °F 66% 30.09 in 10.0 mi South 4.6 mph - N/A   Clear
8:53 PM 82.4 °F 88.2 °F 73.4 °F 74% 30.09 in 10.0 mi South 3.5 mph - N/A   Clear
9:13 PM 82.4 °F 88.2 °F 73.4 °F 74% 30.09 in 10.0 mi South 3.5 mph - N/A   Clear
9:33 PM 80.6 °F 85.4 °F 73.4 °F 79% 30.09 in 10.0 mi South 4.6 mph - N/A   Clear
9:54 PM 80.6 °F 84.6 °F 71.6 °F 74% 30.09 in 10.0 mi South 3.5 mph - N/A   Clear
10:13 PM 80.6 °F 84.6 °F 71.6 °F 74% 30.09 in 10.0 mi South 3.5 mph - N/A   Clear
10:34 PM 80.6 °F 84.6 °F 71.6 °F 74% 30.09 in 10.0 mi South 3.5 mph - N/A   Clear
10:53 PM 78.8 °F - 71.6 °F 78% 30.09 in 10.0 mi South 4.6 mph - N/A   Clear
11:13 PM 78.8 °F - 71.6 °F 78% 30.09 in 10.0 mi South 4.6 mph - N/A   Clear
11:33 PM 78.8 °F - 71.6 °F 78% 30.08 in 10.0 mi South 5.8 mph - N/A   Clear
11:53 PM 78.8 °F - 69.8 °F 74% 30.08 in 10.0 mi South 5.8 mph - N/A   Clear